Helicity
222 249 221 123 115 105 134 164 211 238 242 214 240 153 152 138 169 173 183 177 187 147 96 82 64 62 63 65 65 68 66 70 68 75 78 70 72 86
445 256 128 61 101 110 141 166 184 224 245 192 189 138 103 107 144 223 205 147 116 107 110 99 82 72 56 50 59 60 53 49 50 54 47 46 49 52
352 228 57 77 117 142 176 175 179 185 193 159 120 96 115 140 131 155 177 148 133 105 135 135 111 91 62 56 58 51 44 34 36 42 47 44 42 52
172 91 54 93 115 161 194 163 149 161 173 150 140 156 153 124 138 190 186 120 116 87 97 135 115 86 61 63 56 52 35 24 22 19 20 20 29 35
125 94 88 80 148 180 165 174 174 157 174 184 181 164 153 151 152 159 156 164 118 63 106 95 74 74 96 98 81 66 38 23 14 16 19 16 18 20
138 91 105 115 118 118 139 160 172 170 188 204 202 182 151 139 171 170 160 136 160 112 102 74 71 82 87 105 125 84 58 27 11 9 29 21 2 1
144 102 111 104 103 114 120 143 183 193 210 204 233 202 199 168 179 148 196 164 130 120 94 78 81 92 86 86 73 120 72 60 37 10 1 -8 -14 -11
132 93 89 104 121 151 160 155 150 170 178 197 221 216 188 183 160 191 194 170 134 102 109 79 74 74 81 89 98 118 84 35 -5 10 -13 -14 -8 -14
88 110 117 118 126 126 155 212 199 188 213 227 208 195 155 163 167 176 153 142 125 114 109 85 70 73 78 84 95 84 59 35 27 3 -30 -18 -7 -6
104 110 130 140 141 155 174 184 199 209 202 218 205 187 138 114 155 154 151 140 125 102 73 87 68 73 79 91 42 22 35 72 34 -0 -25 -17 10 13
120 127 149 174 178 203 211 221 192 172 181 210 212 218 319 242 220 201 180 164 163 103 82 90 69 79 79 85 67 93 43 55 13 4 -9 22 39 35
168 169 179 184 172 200 240 217 235 197 124 117 201 203 221 231 194 244 144 159 139 110 71 90 70 72 69 64 97 41 30 17 23 17 -6 31 22 12
210 205 217 199 240 245 246 237 229 158 127 112 102 180 173 161 151 177 173 124 82 67 67 107 75 65 81 71 62 48 44 35 40 29 5 26 33 20
194 209 220 216 170 135 143 127 135 165 192 139 130 151 169 185 214 174 249 105 98 90 86 88 88 82 82 70 56 43 53 49 35 22 15 23 22 8
198 182 131 109 102 145 113 104 110 130 148 194 212 184 139 167 160 246 195 85 112 131 114 70 90 75 81 66 34 35 23 9 35 32 16 5 -3 -27
156 148 137 126 112 126 137 108 124 125 151 112 93 79 84 177 214 183 181 128 106 98 67 70 69 72 79 75 63 37 38 25 28 19 -3 43 24 -85
131 146 142 138 125 108 94 76 70 150 151 102 100 74 97 128 151 183 162 99 95 97 69 61 66 74 79 70 64 56 22 15 3 -4 46 71 -0 -71
144 169 163 155 131 113 88 17 57 182 148 77 52 52 67 116 151 143 132 126 113 81 47 54 61 54 52 51 50 40 11 12 3 38 64 45 1 -38
171 172 161 153 135 106 53 4 -20 119 65 81 99 98 67 94 112 128 141 144 136 74 47 51 58 52 35 11 21 31 12 14 12 33 37 31 25 -18
162 148 137 132 129 112 78 27 35 99 92 77 82 56 62 73 84 107 133 134 132 64 41 46 48 36 40 32 22 -3 40 3 5 20 43 68 11 -69
162 138 120 116 105 97 74 40 2 117 131 83 72 55 66 59 54 72 135 116 113 58 41 46 41 91 55 44 29 44 98 36 -26 -8 17 28 52 -15
143 124 109 96 81 73 64 41 14 51 148 233 60 68 67 58 41 74 131 113 126 65 41 37 45 38 32 35 12 15 9 42 -17 -8 -15 -13 -4 16
129 114 101 84 69 62 56 52 48 63 98 146 238 230 54 43 36 61 119 109 120 66 34 41 33 32 26 19 22 23 36 22 13 1 -3 -34 -49 -58
Wind_Speed
46 50 55 53 50 50 53 54 59 69 68 64 64 53 52 50 52 52 57 62 61 63 66 64 62 62 65 70 73 75 77 79 83 87 91 94 96 96
48 55 53 47 48 52 53 53 55 63 75 64 61 58 53 54 51 53 59 61 59 57 56 53 53 57 63 67 71 74 73 73 78 82 84 86 88 91
52 58 49 47 53 55 58 58 57 61 69 64 58 56 57 57 57 57 54 57 58 56 53 49 53 56 62 65 70 70 69 66 66 72 78 83 86 87
57 58 55 56 59 58 58 57 57 55 61 67 61 61 61 61 61 60 59 54 57 57 57 50 51 51 55 60 59 59 60 59 63 68 76 81 84 85
65 68 63 57 60 56 54 55 56 57 57 60 65 61 61 60 61 57 55 56 57 53 52 48 47 45 52 50 50 50 50 51 56 65 72 80 83 83
60 63 61 60 58 55 53 56 58 59 57 60 62 62 61 59 56 58 57 53 60 61 57 53 47 47 48 44 42 40 39 44 58 67 75 83 84 82
65 66 62 58 56 56 58 61 60 61 59 59 60 60 61 59 57 57 60 62 60 56 55 52 55 60 58 57 55 37 33 45 60 76 82 84 83 82
69 63 62 61 59 56 55 56 59 64 63 63 64 65 61 59 57 57 58 62 65 52 55 56 57 58 58 57 58 54 52 58 69 69 79 82 81 79
61 65 67 64 64 64 62 57 58 59 59 62 65 63 63 58 58 57 55 57 57 55 57 53 55 57 59 58 63 58 50 50 59 70 78 79 76 76
63 67 69 70 67 69 70 69 63 60 56 56 57 59 59 55 52 50 51 53 51 47 45 48 56 59 58 62 70 66 59 39 54 72 79 79 78 78
70 70 70 73 71 74 74 75 72 68 60 54 54 52 52 51 46 45 48 51 53 49 46 48 56 58 59 63 60 56 50 51 63 72 79 80 78 79
73 74 73 75 78 75 73 74 77 72 67 62 53 49 48 49 44 43 42 44 46 50 46 50 58 63 67 61 55 72 69 70 75 79 78 79 77 70
82 84 82 83 85 84 80 76 73 69 67 65 62 49 45 42 38 33 29 29 35 39 47 51 58 58 52 65 67 70 66 63 65 71 73 71 70 73
85 85 87 90 93 90 86 79 74 66 59 57 54 52 47 44 39 33 28 25 29 38 49 49 55 53 53 60 72 68 58 55 61 69 67 69 69 73
83 88 94 93 87 81 73 68 65 59 52 51 49 47 45 40 34 31 32 29 34 44 48 41 42 40 45 59 73 67 66 65 63 61 64 64 58 51
89 92 91 86 79 71 67 60 52 45 40 41 39 38 40 36 29 27 26 27 33 35 35 34 35 36 42 45 53 57 49 56 64 60 56 45 42 55
92 90 88 83 79 73 65 58 48 38 33 27 32 38 34 31 26 21 22 24 29 36 41 35 33 32 32 35 40 30 48 57 56 51 45 42 44 59
85 84 86 82 81 77 72 75 52 31 29 25 29 31 31 29 22 18 19 21 25 34 32 36 39 42 45 39 26 21 44 51 50 45 41 41 35 46
79 79 81 80 78 73 71 66 73 31 32 28 28 31 31 27 23 20 17 19 24 33 31 35 37 36 45 58 48 28 41 48 46 42 41 40 38 39
76 78 78 77 75 72 69 68 65 77 34 34 32 28 31 30 24 19 16 18 24 27 26 28 34 28 36 51 41 53 15 44 43 42 41 40 39 36
76 76 74 74 73 69 68 66 63 64 64 34 34 36 36 35 28 18 14 18 25 22 25 31 34 34 39 35 22 35 21 25 41 41 42 40 39 37
74 74 72 71 70 67 67 66 64 64 63 61 51 42 39 41 37 18 15 23 22 20 25 30 27 31 32 27 20 50 49 22 37 37 36 36 38 40
72 71 71 69 66 65 68 65 64 66 65 62 60 57 47 51 48 26 20 24 24 20 18 28 30 28 31 31 25 46 43 38 33 37 39 37 37 37
Wind_Direction
324 326 324 323 323 322 322 323 323 322 321 323 323 326 325 323 322 322 323 323 324 323 322 323 324 326 325 322 319 316 313 308 304 299 294 290 287 285
329 326 325 321 322 321 321 321 321 321 319 322 323 324 322 322 323 326 324 323 321 321 322 322 325 326 326 324 322 318 315 311 306 301 296 293 290 286
326 326 322 319 318 318 319 320 321 321 319 322 323 324 322 322 322 320 324 324 324 324 327 325 326 326 327 326 324 321 317 315 311 306 300 295 291 288
325 323 319 318 315 317 318 319 319 321 320 319 321 322 321 322 322 321 322 323 324 325 325 324 323 325 328 329 330 326 320 316 313 309 302 296 292 288
321 320 319 317 316 315 315 316 319 319 319 318 320 321 321 322 321 322 322 324 324 323 324 324 324 326 327 329 329 329 326 321 316 311 306 297 291 287
321 321 319 318 316 313 312 312 315 315 315 315 317 318 319 322 322 321 321 323 326 327 327 325 325 326 327 327 326 326 324 323 317 311 306 295 288 284
320 320 319 317 315 314 313 314 314 314 314 313 313 314 317 319 320 322 321 323 324 327 326 328 330 330 332 334 334 328 329 326 317 308 300 293 286 279
320 320 320 320 317 310 306 305 302 306 306 309 311 311 313 315 318 320 321 322 322 328 327 326 328 329 332 335 335 336 330 322 314 311 304 297 288 279
320 321 321 321 320 318 315 305 304 302 297 301 303 306 309 312 315 316 318 320 321 326 326 324 327 328 332 335 333 333 331 325 317 312 304 299 294 284
322 321 320 320 320 319 317 314 308 306 303 302 299 300 304 307 310 312 318 321 322 324 326 323 328 328 332 334 330 330 327 328 320 309 303 295 291 285
322 322 320 320 319 318 317 314 309 305 305 296 295 299 307 308 309 313 315 319 321 323 327 326 327 328 332 333 334 336 337 329 318 310 303 297 291 284
325 323 322 320 318 316 312 312 310 308 307 304 303 301 302 299 296 300 303 310 318 323 327 327 327 328 329 334 337 328 324 317 306 296 303 298 297 304
327 325 323 322 322 321 318 312 308 310 307 305 304 301 301 301 301 295 293 297 311 320 326 327 326 329 332 329 330 329 326 326 318 307 307 306 308 308
328 327 326 324 321 318 315 311 309 305 305 304 301 301 302 301 299 295 292 283 302 314 322 324 325 329 332 330 326 329 334 333 318 310 313 311 314 314
331 329 326 323 321 319 317 315 312 306 301 296 297 297 300 300 297 298 296 294 309 316 319 323 329 333 333 329 322 326 326 318 311 317 317 303 287 282
332 331 329 327 325 322 321 321 320 313 302 301 304 304 307 308 301 299 298 302 311 317 322 326 332 335 335 336 336 332 339 325 299 311 293 274 278 306
333 334 335 335 334 332 331 327 322 318 314 308 309 311 311 308 299 299 297 302 311 318 320 329 337 340 341 342 342 349 334 315 309 289 274 273 295 335
336 337 338 339 338 337 338 337 328 316 324 322 318 316 316 315 307 301 301 304 312 319 322 330 335 336 337 343 357 2 329 320 292 275 269 275 278 336
339 339 340 341 340 338 335 333 336 324 323 319 314 317 317 314 308 300 295 304 311 317 322 330 334 340 335 323 340 360 330 314 287 277 281 279 274 311
341 340 340 340 340 340 337 333 327 318 319 320 319 318 315 312 308 299 288 297 310 317 325 333 335 344 340 328 343 281 36 308 283 281 285 281 290 308
341 340 341 340 340 339 336 333 328 324 321 319 317 316 315 316 310 295 289 297 308 313 323 330 334 342 338 351 9 259 0 339 281 286 287 286 290 314
340 339 339 340 340 339 334 330 324 319 317 318 313 310 311 312 310 301 290 299 306 308 320 328 342 344 344 357 11 285 286 349 297 291 309 312 298 302
339 338 338 339 340 338 333 328 321 313 309 307 307 308 310 307 304 300 291 290 301 308 325 327 333 341 341 348 360 292 306 313 320 298 293 309 307 305